Regional Weather Roundup
Issued by NWS

Home | Current Version | Previous Version | Graphics & Text | Print | Product List | Glossary On
Versions: 1 2 3 4 5 6 7 8 9 10 11 12 13 14 15 16 17 18 19 20 21 22 23 24 25 26 27 28 29 30 31 32 33 34 35 36 37 38 39 40 41 42 43 44 45 46 47 48 49 50
000
ASUS44 KMEG 231010
RWRTN
TENNESSEE HOURLY STATE WEATHER ROUNDUP
NATIONAL WEATHER SERVICE MEMPHIS TN
400 AM CST THU FEB 23 2017

TNZ002-004-019-021-049-052-054-088>092-231100-
WEST TENNESSEE

CITY           SKY/WX    TMP DP  RH WIND       PRES   REMARKS
MEMPHIS INTL   CLEAR     58  56  93 S9        29.79S
NWS MEMPHIS      N/A     55 N/A N/A MISG        N/A
JACKSON        CLOUDY    56  55  97 SW5       29.81S
UNION CITY     CLEAR    N/A N/A N/A CALM      29.79R
PARIS          CLOUDY    55  54  94 S5        29.81S
HUNTINGDON     CLOUDY    57  55  94 CALM      29.80S
$$

TNZ008-025-027-028-033-062-065-066-231100-
NORTH MIDDLE TENNESSEE

CITY           SKY/WX    TMP DP  RH WIND       PRES   REMARKS
NASHVILLE      CLEAR     54  52  93 S5        29.83F FOG
PORTLAND       CLEAR     55  55 100 S9        29.83S
CLARKSVILLE    MOCLDY    54  53  97 CALM      29.82R FOG
SMYRNA         FOG       50  50 100 SE6       29.85S VSB 1/2
COOKEVILLE     FOG       48  48 100 S5        29.86R VSB 1/2
GALLATIN       FOG       48  48 100 CALM      29.86S VSB 0
CROSSVILLE     CLEAR     52  51  97 VRB3      29.89S FOG
$$

TNZ061-075-076-078-094-096-097-231100-
SOUTH MIDDLE TENNESSEE

CITY           SKY/WX    TMP DP  RH WIND       PRES   REMARKS
FAYETTEVILLE   MOCLDY    54  54 100 S5        29.86R
TULLAHOMA      CLEAR     54  54 100 S5        29.87R
WINCHESTER     MOCLDY    57  54  88 S7        29.87S
MCMINNVILLE    CLOUDY    46  46 100 CALM      29.86S VSB 1/4
COLUMBIA       CLEAR    N/A N/A N/A SE3       29.81F
SHELBYVILLE      N/A     55  55 100 S3        29.86S VSB 1
$$

TNZ017-018-042-046-047-231100-
NORTHEAST TENNESSEE

CITY           SKY/WX    TMP DP  RH WIND       PRES   REMARKS
TRI CITIES     FOG       45  44  97 CALM      29.91R VSB 1/16
ELIZABETHTON   MOCLDY    48  48 100 CALM      29.91R
$$

TNZ012-013-036-069-073-074-231100-
CENTRAL EAST TENNESSEE

CITY           SKY/WX    TMP DP  RH WIND       PRES   REMARKS
KNOXVILLE      FOG       54  53  97 CALM      29.89R VSB 1/8
OAK RIDGE      FOG       52  51  97 CALM      29.90R VSB 1/4
GATLINBURG     CLOUDY    50  50 100 CALM      29.90R VSB 1/4
MORRISTOWN     FOG       48  48 100 CALM      29.89R VSB 0
JACKSBORO      CLOUDY    54  54 100 CALM      29.92R FOG
$$

TNZ083-085-099-231100-
SOUTHEAST TENNESSEE

CITY           SKY/WX    TMP DP  RH WIND       PRES   REMARKS
CHATTANOOGA    FOG       53  52  96 CALM      29.89R VSB 3/4
$$

SKY/WX REPORTED AS FAIR MEANS FEW OR NO CLOUDS BELOW
12 THOUSAND FEET.




USA.gov is the U.S. government's official web portal to all federal, state and local government web resources and services.